sat.trackr.live / text

‹ back to catalog

STARLINK-36300

NORAD 68303 · 2026-057K

PAYLOAD ACTIVE UNKNOWN

§ Identity

Operator
Country
US
Launch date
2026-03-20
Launch site
AFWTR
Launch vehicle
Mass (kg)
RCS (m²)

Purposes: comms

External: N2YO · Heavens-Above · Gunter

§ Orbital elements

Epoch: 2026-05-24T21:06:18.684288Z

Period
91.41 min
Inclination
97.2845°
Eccentricity
0.0000723
Mean motion
15.75248835 rev/d
Perigee alt
343.4 km
Apogee alt
344.4 km
Semi-major
6,722.1 km
B*
7.9285e-4
RAAN
271.1836°
Arg perigee
125.4400°
Mean anomaly
234.6933°
Rev number
1,028

§ Raw data

STARLINK-363001 68303U 26057K   26144.87938292  .00120109  00000+0  79285-3 0  99912 68303  97.2845 271.1836 0000723 125.4400 234.6933 15.75248835 10282

JSON: /api/v1/satellites/68303 · /tle

For live sub-satellite position, see the globe view (requires WebGL).

§ Visibility from observer

Set your observer location to see the next 7 days of passes ≥ 10°. The values pass through the URL so the page stays shareable.

No JS? Fill the form by hand. The geolocation button needs JavaScript.